SWIFT

Last updated on Mon Sep 21 2026 00:02:52 GMT+0000 (Coordinated Universal Time)

1 28485U 04047A 26263.38619170 .00158075 00000+0 70158-3 0 9995 2 28485 20.5498 164.4956 0003316 278.0181 81.9892 15.82536625201881
UTC large
Height (km)
Speed (km/s)
/
Latitude / Longitude
Inclination (degrees)
Orbital Period (minutes)
Azimuth
Elevation
Range (km)
Doppler Factor

Next 0 passes for location: London (51.5072 / 0.1276)

No passes found over London.
SWIFT